Regional Weather Roundup
Issued by NWS

Home | Current Version | Previous Version | Graphics & Text | Print | Product List | Glossary On
Versions: 1 2 3 4 5 6 7 8 9 10 11 12 13 14 15 16 17 18 19 20 21 22 23 24 25 26 27
000
ASUS45 KCYS 300610
RWRWY

WYOMING REGIONAL WEATHER ROUNDUP
NATIONAL WEATHER SERVICE CHEYENNE WY
1200 AM MDT SAT JUL 30 2016

NOTE:  "FAIR" INDICATES FEW OR NO CLOUDS BELOW 12,000 FEET
WITH NO SIGNIFICANT WEATHER AND/OR OBSTRUCTIONS TO VISIBILITY.

WYZ001-300700-
YELLOWSTONE NATIONAL PARK

CITY           SKY/WX    TMP DP  RH WIND       PRES   REMARKS
LK YELLOWSTONE   N/A     50  39  66 CALM      30.25F
6HR MIN TEMP:  50; 6HR MAX TEMP:  78;

W YELLOWSTONE  NOT AVBL

$$
WYZ002>013-054>058-071-098>099-300700-
NORTHERN WYOMING

CITY           SKY/WX    TMP DP  RH WIND       PRES   REMARKS
JACKSON        FAIR      54  36  50 N9        30.13S
CODY           FAIR      63  52  67 S5        30.07F
GREYBULL       FAIR      72  47  40 SE5       29.98R
6HR MIN TEMP:  72; 6HR MAX TEMP:  92; 6HR PCP: TRACE;

WORLAND        FAIR      71  44  37 S9        30.00R
6HR MIN TEMP:  67; 6HR MAX TEMP:  91;

SHERIDAN       FAIR      69  48  47 NE9       30.01F
6HR MIN TEMP:  66; 6HR MAX TEMP:  89;

BUFFALO        FAIR      65  49  56 W9        30.09R
6HR MIN TEMP:  64; 6HR MAX TEMP:  83; 6HR PCP: TRACE;

GILLETTE       FAIR      67  56  67 SW15      30.05F
6HR MIN TEMP:  67; 6HR MAX TEMP:  84;

HULETT         FAIR      63  52  67 SW5       30.07F
NEWCASTLE      FAIR      63  54  72 SE7       30.08F

$$
WYZ014>020-022>026-101>103-300700-
CENTRAL WYOMING

CITY           SKY/WX    TMP DP  RH WIND       PRES   REMARKS
BIG PINEY      FAIR      54  31  41 E6        30.19S
6HR MIN TEMP:  52; 6HR MAX TEMP:  86;

PINEDALE       FAIR      55  34  44 NW9       30.19S
DUBOIS         FAIR      59  39  47 W3        30.21S
LANDER         FAIR      68  42  38 W8        30.12S
6HR MIN TEMP:  68; 6HR MAX TEMP:  87;

RIVERTON       FAIR      66  45  46 N7        30.12R
6HR MIN TEMP:  66; 6HR MAX TEMP:  88;

CASPER         FAIR      60  55  83 N3        30.12R
6HR MIN TEMP:  60; 6HR MAX TEMP:  80; 6HR PCP:  0.08;

DOUGLAS        FAIR      61  57  87 SE8       30.10F
6HR MIN TEMP:  60; 6HR MAX TEMP:  76; 6HR PCP:  0.02;


$$
WYZ021-027>030-104>119-300700-
SOUTHERN WYOMING

CITY           SKY/WX    TMP DP  RH WIND       PRES   REMARKS
EVANSTON       FAIR      72  30  21 W7        30.21S
6HR MIN TEMP:  70; 6HR MAX TEMP:  87;

KEMMERER         N/A    N/A N/A N/A N8        30.21F
FORT BRIDGER   FAIR      65  28  25 W8        30.22S
ROCK SPRINGS   FAIR      69  39  33 NE13      30.16F
6HR MIN TEMP:  69; 6HR MAX TEMP:  88;

DIXON          FAIR      57  32  38 CALM      30.14S
RAWLINS        FAIR      64  49  57 NE14      30.15S
6HR MIN TEMP:  64; 6HR MAX TEMP:  88;

SARATOGA       FAIR      63  45  51 SE13      30.15S
LARAMIE        FAIR      60  51  72 SE16G25   30.23F
6HR MIN TEMP:  59; 6HR MAX TEMP:  76;

CHEYENNE       FAIR      60  54  80 S7        30.21F
6HR MIN TEMP:  60; 6HR MAX TEMP:  71;

TORRINGTON     FAIR      61  58  90 E6        30.06F
6HR MIN TEMP:  58; 6HR MAX TEMP:  69; 6HR PCP:  0.18;

PINE BLUFFS    FAIR      63  55  77 SE12G18   30.16F

$$




USA.gov is the U.S. government's official web portal to all federal, state and local government web resources and services.